Corpus Christi, TX

5:12 PM CDT on March 23, 2017 (GMT -0500)
Corpus Christi International

Weather History for KCRP - January, 2011

Change the Weather History Date:

Thursday, January 20, 2011

  Actual Average Record
Temperature  
Mean Temperature 55 °F 57 °F  
Max Temperature 69 °F 67 °F 85 °F (1972)
Min Temperature 40 °F 47 °F 25 °F (1963)
Degree Days  
Heating Degree Days 10 9  
Month to date heating degree days 190 180  
Since 1 July heating degree days 509 531  
Cooling Degree Days 0 1  
Month to date cooling degree days 3 20  
Year to date cooling degree days 3 20  
Growing Degree Days 4 (Base 50)    
Moisture  
Dew Point 54 °F    
Average Humidity 82    
Maximum Humidity 100    
Minimum Humidity 63    
Precipitation  
Precipitation 0.01 in 0.05 in 0.76 in (1891)
Month to date precipitation 3.40 0.99  
Year to date precipitation 3.40 0.99  
Snow  
Snow 0.00 in - - ()
Month to date snowfall 0.0  
Since 1 July snowfall 0.0  
Snow Depth 0.00 in    
Sea Level Pressure  
Sea Level Pressure 29.96 in    
Wind  
Wind Speed 14 mph (NE)    
Max Wind Speed 35 mph    
Max Gust Speed 41 mph    
Visibility 6 miles    
Events Fog , Rain    
T = Trace of Precipitation, MM = Missing Value Source: NWS Daily Summary

Daily Weather History Graph

Daily Weather History Graph

Search for Another Location

Airport or City:

Trip Planner

Search our weather history database for the weather conditions in past years. The results will help you decide how hot, cold, wet, or windy it might be!

Date:

Astronomy

Jan. 20, 2011 Rise Set
Actual Time 7:21 AM CST 6:00 PM CST
Civil Twilight 6:56 AM CST 6:25 PM CST
Nautical Twilight 6:27 AM CST 6:54 PM CST
Astronomical Twilight 5:59 AM CST 7:22 PM CST
Moon 7:15 PM CST (1/20) 7:47 AM CST (1/20)
Length of Visible Light 11h 29m
Length of Day
10h 39m
Full, 99% of the Moon is Illuminated
Jan 20
Full
Jan 26
Last Quarter
Feb 2
New
Feb 11
First Quarter
Feb 18
Full

Hourly Weather History & Observations

Time (CST) Temp. Windchill Dew Point Humidity Pressure Visibility Wind Dir Wind Speed Gust Speed Precip Events Conditions
12:51 AM 61.0 °F - 59.0 °F 93% 29.86 in 10.0 mi SE 8.1 mph - N/A   Scattered Clouds
1:16 AM 59.0 °F - 57.2 °F 94% 29.85 in 10.0 mi SE 6.9 mph - N/A   Mostly Cloudy
1:51 AM 60.1 °F - 57.9 °F 93% 29.85 in 10.0 mi ESE 6.9 mph - N/A   Mostly Cloudy
1:57 AM 60.8 °F - 59.0 °F 94% 29.84 in 10.0 mi ESE 6.9 mph - N/A   Partly Cloudy
2:10 AM 60.8 °F - 57.2 °F 88% 29.84 in 10.0 mi SE 8.1 mph - N/A   Mostly Cloudy
2:36 AM 60.8 °F - 60.8 °F 100% 29.84 in 10.0 mi ESE 4.6 mph - N/A   Mostly Cloudy
2:51 AM 60.1 °F - 59.0 °F 96% 29.83 in 10.0 mi ESE 5.8 mph - N/A   Mostly Cloudy
3:51 AM 59.0 °F - 57.9 °F 96% 29.83 in 9.0 mi East 4.6 mph - N/A   Partly Cloudy
4:51 AM 59.0 °F - 57.9 °F 96% 29.82 in 6.0 mi East 6.9 mph - N/A   Partly Cloudy
5:51 AM 59.0 °F - 57.9 °F 96% 29.83 in 3.0 mi Calm Calm - N/A   Partly Cloudy
6:11 AM 57.2 °F - 55.4 °F 94% 29.84 in 1.8 mi Calm Calm - N/A   Partly Cloudy
6:46 AM 57.2 °F - 57.2 °F 100% 29.84 in 0.8 mi ESE 4.6 mph - N/A   Partly Cloudy
6:51 AM 57.0 °F - 57.0 °F 100% 29.84 in 0.8 mi ESE 4.6 mph - N/A   Partly Cloudy
7:08 AM 57.2 °F - 55.4 °F 94% 29.84 in 0.5 mi ESE 4.6 mph - N/A Fog Fog
7:16 AM 57.2 °F - 57.2 °F 100% 29.85 in 0.2 mi East 3.5 mph - N/A Fog Fog
7:51 AM 55.9 °F - 55.9 °F 100% 29.85 in 0.2 mi SE 4.6 mph - N/A Fog Fog
8:51 AM 62.1 °F - 62.1 °F 100% 29.88 in 0.2 mi Calm Calm - N/A   Partly Cloudy
9:20 AM 64.4 °F - 64.4 °F 100% 29.90 in 1.8 mi Calm Calm - N/A   Partly Cloudy
9:51 AM 66.0 °F - 64.0 °F 93% 29.91 in 2.5 mi Calm Calm - N/A   Mostly Cloudy
10:03 AM 66.2 °F - 64.4 °F 94% 29.92 in 3.0 mi South 3.5 mph - N/A   Scattered Clouds
10:51 AM 66.0 °F - 64.0 °F 93% 29.97 in 3.0 mi NNW 15.0 mph - N/A   Mostly Cloudy
11:00 AM 64.4 °F - 62.6 °F 94% 29.98 in 3.0 mi NNW 17.3 mph - N/A   Mostly Cloudy
11:17 AM 64.4 °F - 62.6 °F 94% 29.97 in 1.8 mi NNW 16.1 mph - 0.00 in Rain Light Rain
11:21 AM 64.4 °F - 62.6 °F 94% 29.97 in 1.8 mi NNW 12.7 mph - 0.00 in Rain Light Rain
11:29 AM 64.4 °F - 64.4 °F 100% 29.97 in 2.0 mi NNW 15.0 mph - 0.00 in Rain Light Rain
11:51 AM 64.0 °F - 63.0 °F 96% 29.97 in 2.0 mi NNW 17.3 mph - 0.01 in Rain Light Rain
12:17 PM 64.4 °F - 62.6 °F 94% 29.97 in 5.0 mi North 16.1 mph - 0.00 in   Overcast
12:24 PM 62.6 °F - 60.8 °F 94% 29.97 in 5.0 mi North 21.9 mph - 0.00 in Rain Light Rain
12:34 PM 64.4 °F - 60.8 °F 88% 29.97 in 7.0 mi North 23.0 mph - 0.00 in   Overcast
12:51 PM 64.0 °F - 61.0 °F 90% 29.96 in 7.0 mi North 23.0 mph 27.6 mph 0.00 in   Mostly Cloudy
1:51 PM 63.0 °F - 59.0 °F 87% 29.96 in 10.0 mi North 20.7 mph 32.2 mph N/A   Overcast
2:28 PM 55.4 °F - 48.2 °F 77% 29.99 in 8.0 mi North 26.5 mph 38.0 mph N/A   Overcast
2:51 PM 55.9 °F - 48.0 °F 75% 30.01 in 10.0 mi North 25.3 mph 38.0 mph N/A   Overcast
3:51 PM 54.0 °F - 43.0 °F 66% 30.03 in 10.0 mi North 27.6 mph 39.1 mph N/A   Mostly Cloudy
4:51 PM 54.0 °F - 42.1 °F 64% 30.06 in 10.0 mi North 20.7 mph 28.8 mph N/A   Scattered Clouds
5:51 PM 51.1 °F - 39.9 °F 66% 30.09 in 10.0 mi North 23.0 mph - N/A   Partly Cloudy
6:51 PM 48.9 °F - 37.0 °F 64% 30.14 in 10.0 mi North 25.3 mph 31.1 mph N/A   Partly Cloudy
7:51 PM 46.0 °F 38.3 °F 36.0 °F 68% 30.17 in 10.0 mi North 20.7 mph 26.5 mph N/A   Partly Cloudy
8:51 PM 45.0 °F 38.5 °F 36.0 °F 71% 30.20 in 10.0 mi North 13.8 mph - N/A   Partly Cloudy
9:51 PM 43.0 °F 34.0 °F 32.0 °F 65% 30.23 in 10.0 mi North 21.9 mph 27.6 mph N/A   Partly Cloudy
10:51 PM 41.0 °F 33.1 °F 30.9 °F 67% 30.25 in 10.0 mi North 15.0 mph - N/A   Clear
11:51 PM 39.9 °F 31.4 °F 28.9 °F 65% 30.26 in 10.0 mi North 16.1 mph - N/A   Clear